CZ-6A DEB, 55862

Orbit data source: Space-Track

CZ-6A DEB, 55862 is space debris in SSO originally from a launch on Fri, 11 Nov 2022 UTC launched from the Taiyaun Space Center, China (TSC). Debris objects in space refer to the collection of defunct objects orbiting the Earth. Examples of debris include non-operational satellites, rocket bodies, and fragments generated from explosions, collisions, or faulty payload assembly.

Loading next visibility...
Identifier
55862, 2022-151ZJ
Orbit
SSO
Country
Flag of CNCN / PRC
Related business
Manufacturer
SAST
Mission
Spacecraft
Bus & Motor
Unknown
Mass
Unknown
Launch date (UTC)
2022-11-11 (4 years ago)
Launch vehicle
Unknown
Launch site
Taiyaun Space Center, China (TSC)
Object type
Payload
Rocket body
Debris
Shape & HBR
Unknown shape, 0.1 m
Radar Cross Section
Small (<0.1 m²)

Expand to show TLE details & history
Last TLE update: 1 day ago

TLE from 1 day ago
0 CZ-6A DEB
1 55862U 22151ZJ  26235.51834107  .00001590  00000-0  63785-3 0  9991
2 55862  98.7482 259.8896 0003019 152.2096 207.9247 14.29669249189990
Epoch: 2026-08-23T12:26Z
TLE epoch observation values (Epoch: 2026-08-23T12:26:24.668Z)
Latitude
-0.00007°
Longitude
101.47358°
Altitude
797.676 km
Speed
7.454 km/s
True Right ascension
17h 19m 33s
True Declination
0° 00' 00"
Sunlit
Object was in daylight at epoch
Visualization orbit readout
Latitude
Unknown
Longitude
Unknown
Altitude
Unknown
Speed
Unknown
Apparent Right ascension
Unknown
Apparent Declination
Unknown
Sunlit
N/A
Visualization observer readout
Local Sidereal Time
03:49:27
Azimuth
Unknown
Elevation
Unknown
Doppler factor
Unknown
Orbital elements
Apogee altitude
792.148 km
Perigee altitude
787.82 km
Semi-major axis
7,168.121 km
Eccentricity
0.0003
Inclination
98.7482°
RAAN
259.8896°
Arg. of periapsis
152.2096°
True anomaly
207.9085°
Mean anomaly
207.9247°
Eccentric anomaly
207.9166°
Mean motion
3.57631 °/min
Orbital period
100.66 mins
BSTAR
0.00063785
Loading maneuver chart data...
Computing Atmospheric mass density...
Loading historical data...
Loading historical data...
Loading historical data...
Loading historical data...
Loading historical data...
Loading historical data...
Loading historical data...

Documentation

Showing up to 5 results
|